Location: Alafon
(8.4500°N, 4.2333°E)
Time: 01:49:36
(UTC+00:00)

SL-16 R/B - Pass Details

Date: 05 July 2020
Orbit: 842 x 846 km, 71.0° (Epoch: 06 August)

Event Time Altitude Azimuth Distance (km) Brightness Sun altitude
Rises 18:55:01 0° 202° (SSW) 3,390 5.3 -11.9°
Reaches altitude 10° 18:57:29 10° 205° (SSW) 2,455 4.6 -12.5°
Maximum altitude 19:03:03 64° 286° (WNW) 930 2.7 -13.7°
Drops below altitude 10° 19:08:38 10° 7° (N) 2,455 4.9 -15.0°
Sets 19:11:06 0° 10° (N) 3,389 5.6 -15.5°
